| time (UTC) | temp F | wind direction | speed MPH | gust MPH | rain 1hr in | rain 24hr in | rain mn in | humidity % | barometer mb |
| 20260509174016 | 85 | 113 | 1.0 | 4.0 | 0.00 | 0.00 | 0.00 | 66 | 1009.1 |
| 20260509173017 | 88 | 0.0 | 2.0 | 0.00 | 0.00 | 0.00 | 64 | 1009.6 | |
| 20260509172016 | 87 | 0.0 | 3.0 | 0.00 | 0.00 | 0.00 | 67 | 1009.7 | |
| 20260509171016 | 85 | 113 | 1.0 | 6.0 | 0.00 | 0.00 | 0.00 | 68 | 1009.9 |
| 20260509170017 | 84 | 0.0 | 3.0 | 0.00 | 0.00 | 0.00 | 72 | 1009.7 | |
| 20260509165016 | 83 | 113 | 2.0 | 5.0 | 0.00 | 0.00 | 0.00 | 73 | 1009.5 |
| 20260509164017 | 83 | 113 | 1.0 | 3.0 | 0.00 | 0.00 | 0.00 | 76 | 1009.7 |
| 20260509163016 | 81 | 113 | 2.0 | 7.0 | 0.00 | 0.00 | 0.00 | 76 | 1009.7 |
| 20260509162016 | 80 | 113 | 1.0 | 7.0 | 0.00 | 0.00 | 0.00 | 82 | 1009.7 |
| 20260509161016 | 78 | 113 | 2.0 | 8.0 | 0.00 | 0.00 | 0.00 | 84 | 1009.7 |
| 20260509160036 | 78 | 113 | 1.0 | 6.0 | 0.00 | 0.00 | 0.00 | 86 | 1009.7 |
| 20260509155056 | 76 | 113 | 1.0 | 3.0 | 0.00 | 0.00 | 0.00 | 88 | 1009.8 |
| 20260509154017 | 76 | 0.0 | 5.0 | 0.00 | 0.00 | 0.00 | 89 | 1009.7 | |
| 20260509153016 | 77 | 113 | 1.0 | 6.0 | 0.00 | 0.00 | 0.00 | 88 | 1009.6 |
| 20260509152016 | 77 | 113 | 1.0 | 4.0 | 0.00 | 0.00 | 0.00 | 89 | 1009.2 |
| 20260509151016 | 77 | 113 | 1.0 | 5.0 | 0.00 | 0.00 | 0.00 | 89 | 1009.2 |
| 20260509150016 | 77 | 113 | 1.0 | 4.0 | 0.00 | 0.00 | 0.00 | 88 | 1009.2 |
| 20260509145017 | 77 | 113 | 1.0 | 4.0 | 0.00 | 0.00 | 0.00 | 89 | 1009.2 |
| 20260509144016 | 78 | 113 | 1.0 | 4.0 | 0.00 | 0.00 | 0.00 | 88 | 1009.1 |
| 20260509143036 | 77 | 113 | 1.0 | 5.0 | 0.00 | 0.00 | 0.00 | 89 | 1008.9 |
| 20260509142057 | 76 | 113 | 1.0 | 3.0 | 0.00 | 0.00 | 0.00 | 90 | 1008.7 |
| 20260509141016 | 75 | 0.0 | 2.0 | 0.00 | 0.00 | 0.00 | 92 | 1008.3 | |
| 20260509140038 | 74 | 0.0 | 4.0 | 0.00 | 0.00 | 0.00 | 94 | 1008.3 | |
| 20260509135017 | 73 | 113 | 1.0 | 4.0 | 0.00 | 0.00 | 0.00 | 96 | 1008.2 |
| 20260509134016 | 73 | 0.0 | 2.0 | 0.00 | 0.00 | 0.00 | 97 | 1008.3 | |
| 20260509133016 | 72 | 0.0 | 2.0 | 0.00 | 0.00 | 0.00 | 97 | 1008.4 | |
| 20260509132016 | 72 | 113 | 1.0 | 4.0 | 0.00 | 0.00 | 0.00 | 97 | 1008.4 |
| 20260509131016 | 72 | 0.0 | 3.0 | 0.00 | 0.00 | 0.00 | 97 | 1008.8 | |
| 20260509130016 | 71 | 0.0 | 0.0 | 0.00 | 0.00 | 0.00 | 97 | 1009.3 | |
| 20260509125017 | 71 | 0.0 | 0.0 | 0.00 | 0.00 | 0.00 | 97 | 1009.2 | |
| 20260509124037 | 71 | 0.0 | 0.0 | 0.00 | 0.00 | 0.00 | 97 | 1009.1 | |
| 20260509123016 | 71 | 0.0 | 0.0 | 0.00 | 0.00 | 0.00 | 97 | 1008.8 | |
| 20260509122016 | 71 | 0.0 | 0.0 | 0.00 | 0.00 | 0.00 | 97 | 1008.8 | |
| 20260509121016 | 71 | 0.0 | 0.0 | 0.00 | 0.00 | 0.00 | 97 | 1008.9 | |
| 20260509120016 | 70 | 0.0 | 0.0 | 0.00 | 0.00 | 0.00 | 97 | 1008.9 | |
| 20260509115017 | 71 | 0.0 | 0.0 | 0.00 | 0.00 | 0.00 | 96 | 1009.1 |